Weather History for Lee's Summit, MO

Change the Weather History Date:

Monday, December 17, 2012

  Actual Average (KMKC) Record (KMKC)
Temperature  
Mean Temperature 40 °F -  
Max Temperature 46 °F 38 °F 62 °F (2002)
Min Temperature 33 °F 23 °F 3 °F (2000)
Degree Days  
Heating Degree Days 26    
Moisture  
Dew Point 32 °F    
Average Humidity 80    
Maximum Humidity 93    
Minimum Humidity 59    
Precipitation  
Precipitation 0.00 in - - ()
Sea Level Pressure  
Sea Level Pressure 29.76 in    
Wind  
Wind Speed 6 mph (WSW)    
Max Wind Speed 13 mph    
Max Gust Speed -    
Visibility 7 miles    
Events      
Averages and records for this station are not official NWS values.
T = Trace of Precipitation, MM = Missing Value Source: NWS Daily Summary

Daily Weather History Graph

Daily Weather History Graph

Search for Another Location

Airport:

Trip Planner

Search our weather history database for the weather conditions in past years. The results will help you decide how hot, cold, wet, or windy it might be!

Date:

Astronomy

Dec. 17, 2012 Rise Set
Actual Time 7:30 AM CST 4:57 PM CST
Civil Twilight 7:00 AM CST 5:27 PM CST
Nautical Twilight 6:27 AM CST 6:00 PM CST
Astronomical Twilight 5:54 AM CST 6:33 PM CST
Moon 10:41 AM CST (12/17) 10:17 PM CST (12/17)
Length of Visible Light 10h 26m
Length of Day
9h 26m
Waxing Crescent, 25% of the Moon is Illuminated
Dec 17
Waxing Crescent
Dec 19
First Quarter
Dec 28
Full
Jan 4
Last Quarter
Jan 11
New

Hourly Weather History & Observations

Time (CST) Temp. Windchill Dew Point Humidity Pressure Visibility Wind Dir Wind Speed Gust Speed Precip Events Conditions
12:53 AM 36.0 °F 32.1 °F 33.1 °F 89% 29.78 in 5.0 mi North 4.6 mph - N/A   Overcast
1:53 AM 36.0 °F 31.1 °F 33.1 °F 89% 29.78 in 5.0 mi North 5.8 mph - N/A   Overcast
2:53 AM 36.0 °F 33.3 °F 34.0 °F 93% 29.79 in 4.0 mi West 3.5 mph - N/A   Overcast
3:53 AM 36.0 °F 31.1 °F 33.1 °F 89% 29.78 in 4.0 mi NW 5.8 mph - N/A   Overcast
4:44 AM 35.6 °F 30.7 °F 33.8 °F 93% 29.74 in 4.0 mi NW 5.8 mph - N/A   Overcast
4:53 AM 35.1 °F 31.0 °F 33.1 °F 92% 29.76 in 4.0 mi WNW 4.6 mph - N/A   Overcast
5:53 AM 35.1 °F 30.1 °F 33.1 °F 92% 29.76 in 4.0 mi WNW 5.8 mph - N/A   Overcast
6:53 AM 35.1 °F 30.1 °F 33.1 °F 92% 29.78 in 4.0 mi WNW 5.8 mph - N/A   Overcast
7:41 AM 33.8 °F 30.8 °F 32.0 °F 93% 29.76 in 4.0 mi WNW 3.5 mph - N/A   Overcast
7:53 AM 34.0 °F - 32.0 °F 92% 29.78 in 4.0 mi Calm Calm - N/A   Overcast
9:53 AM 35.1 °F 30.1 °F 30.0 °F 82% 29.80 in 5.0 mi WSW 5.8 mph - N/A   Haze
10:53 AM 37.0 °F 31.6 °F 30.0 °F 76% 29.79 in 5.0 mi West 6.9 mph - N/A   Haze
11:21 AM 37.4 °F - 28.4 °F 70% 29.76 in 6.0 mi Calm Calm - N/A   Haze
11:53 AM 39.9 °F 35.1 °F 30.0 °F 68% 29.77 in 7.0 mi SW 6.9 mph - N/A   Clear
12:53 PM 42.1 °F 38.4 °F 30.9 °F 65% 29.74 in 8.0 mi SSW 5.8 mph - N/A   Clear
1:53 PM 45.0 °F 40.1 °F 32.0 °F 60% 29.72 in 9.0 mi SSW 9.2 mph - N/A   Clear
2:53 PM 46.9 °F - 33.1 °F 59% 29.72 in 10.0 mi West 9.2 mph - N/A   Clear
3:53 PM 46.0 °F 43.1 °F 33.1 °F 61% 29.72 in 10.0 mi WSW 5.8 mph - N/A   Clear
6:53 PM 39.9 °F 36.7 °F 32.0 °F 73% 29.74 in 10.0 mi SSW 4.6 mph - N/A   Clear
7:53 PM 39.0 °F 34.0 °F 32.0 °F 76% 29.75 in 10.0 mi SSW 6.9 mph - N/A   Clear
8:53 PM 37.9 °F 33.5 °F 30.9 °F 76% 29.75 in 10.0 mi South 5.8 mph - N/A   Clear
9:53 PM 37.9 °F 30.9 °F 32.0 °F 79% 29.74 in 10.0 mi South 10.4 mph - N/A   Clear
10:53 PM 37.9 °F 30.0 °F 32.0 °F 79% 29.73 in 10.0 mi South 12.7 mph - N/A   Clear
11:53 PM 37.0 °F 29.8 °F 30.9 °F 79% 29.71 in 10.0 mi South 10.4 mph - N/A   Clear